Weather History for Culdrose, United Kingdom

Change the Weather History Date:

Sunday, March 10, 2013

  Actual Average Record
Temperature  
Mean Temperature 40 °F -  
Max Temperature 44 °F 49 °F 58 °F (2014)
Min Temperature 37 °F 41 °F 32 °F (1999)
Degree Days  
Heating Degree Days 24    
Moisture  
Dew Point 39 °F    
Average Humidity 89    
Maximum Humidity 100    
Minimum Humidity 72    
Precipitation  
Precipitation 0.04 in - - ()
Sea Level Pressure  
Sea Level Pressure 29.51 in    
Wind  
Wind Speed 23 mph ()    
Max Wind Speed 40 mph    
Max Gust Speed 59 mph    
Visibility 3.9 miles    
Events Rain    
Averages and records for this station are not official NWS values.
T = Trace of Precipitation, MM = Missing Value Source: Averaged Metar Reports

Daily Weather History Graph

Daily Weather History Graph

Search for Another Location

Airport:

Trip Planner

Search our weather history database for the weather conditions in past years. The results will help you decide how hot, cold, wet, or windy it might be!

Date:

Astronomy

Mar. 10, 2013 Rise Set
Actual Time 6:45 AM GMT 6:18 PM GMT
Civil Twilight 6:13 AM GMT 6:50 PM GMT
Nautical Twilight 5:35 AM GMT 7:27 PM GMT
Astronomical Twilight 4:57 AM GMT 8:06 PM GMT
Moon 5:42 AM GMT (3/10) 5:08 PM GMT (3/10)
Length of Visible Light 12h 37m
Length of Day
11h 32m
Waning Crescent, 2% of the Moon is Illuminated
Mar 10
Waning Crescent
Mar 11
New
Mar 19
First Quarter
Mar 27
Full
Apr 3
Last Quarter

Hourly Weather History & Observations

Time (GMT) Temp. Windchill Dew Point Humidity Pressure Visibility Wind Dir Wind Speed Gust Speed Precip Events Conditions
12:50 AM 48.2 °F - 46.4 °F 93% 29.50 in 6.2 mi ESE 15.0 mph - N/A   Mostly Cloudy
1:50 AM 48.2 °F - 46.4 °F 93% 29.50 in 2.5 mi ESE 17.3 mph - N/A Rain Light Rain Showers
2:50 AM 46 °F - 46 °F 98% 29.52 in 2 mi ESE 19.6 mph - - Rain Light Rain Showers
2:50 AM 46.4 °F 39.0 °F 46.4 °F 100% 29.50 in 2.5 mi ESE 19.6 mph 32.2 mph N/A Rain Light Rain Showers
3:50 AM 46.4 °F 39.0 °F 46.4 °F 100% 29.50 in 2.5 mi East 19.6 mph 32.2 mph N/A Rain Light Rain Showers
4:50 AM 46.4 °F 39.0 °F 44.6 °F 93% 29.50 in 2.5 mi East 19.6 mph 36.8 mph N/A Rain Light Rain Showers
5:50 AM 44 °F - 44 °F 97% 29.52 in 2 mi East 20.7 mph - - Rain Light Rain Showers
5:50 AM 44.6 °F 36.4 °F 42.8 °F 93% 29.50 in 2.2 mi East 20.7 mph 35.7 mph N/A Rain Light Rain Showers
6:50 AM 44.6 °F 35.5 °F 42.8 °F 93% 29.50 in 1.9 mi East 25.3 mph 40.3 mph N/A Rain Light Rain Showers
7:50 AM 42.8 °F 32.9 °F 41.0 °F 93% 29.50 in 1.7 mi East 26.5 mph 42.6 mph N/A   Overcast
8:50 AM 42 °F - 40 °F 90%  in 2 mi East 27.6 mph - - Rain Light Rain
8:50 AM 42.8 °F 32.7 °F 41.0 °F 93% 29.50 in 1.9 mi East 27.6 mph 42.6 mph N/A Rain Light Rain
9:50 AM 41.0 °F 30.2 °F 39.2 °F 93% 29.50 in 2.5 mi East 27.6 mph 43.7 mph N/A Rain Light Rain
10:50 AM 41.0 °F 30.2 °F 37.4 °F 87% 29.50 in 3.7 mi East 27.6 mph 44.9 mph N/A   Haze
11:50 AM 41 °F - 37 °F 82% 29.53 in 5 mi East 32.2 mph - -   Haze
11:50 AM 41.0 °F 29.5 °F 37.4 °F 87% 29.50 in 5.0 mi East 32.2 mph 49.5 mph N/A   Haze
12:50 PM 41.0 °F 29.7 °F 37.4 °F 87% 29.50 in 4.3 mi East 31.1 mph 49.5 mph N/A Rain Light Rain
1:50 PM 41.0 °F 29.5 °F 37.4 °F 87% 29.50 in 5.0 mi East 32.2 mph 51.8 mph N/A   Haze
2:50 PM 41.0 °F 29.1 °F 37.4 °F 87% 29.50 in 4.3 mi East 34.5 mph 54.1 mph N/A   Haze
3:50 PM 39.2 °F 27.2 °F 35.6 °F 87% 29.50 in 4.3 mi East 31.1 mph 49.5 mph N/A Rain Light Rain
4:50 PM 39.2 °F 27.4 °F 35.6 °F 87% 29.47 in 4.3 mi East 29.9 mph 47.2 mph N/A Rain Light Rain
5:50 PM 39 °F - 37 °F 89% 29.52 in 3 mi East 29.9 mph - - Rain Light Rain
5:50 PM 39.2 °F 27.4 °F 37.4 °F 93% 29.50 in 3.1 mi East 29.9 mph 48.3 mph N/A Rain Light Rain
6:50 PM 39.2 °F 27.8 °F 35.6 °F 87% 29.50 in 3.7 mi East 27.6 mph 46.0 mph N/A Rain Light Rain
7:50 PM 39.2 °F 26.6 °F 35.6 °F 87% 29.50 in 3.1 mi East 34.5 mph 54.1 mph N/A Rain Light Rain
8:50 PM 38 °F - 34 °F 80% 29.54 in 6 mi East 35.7 mph - - Rain Light Rain
8:50 PM 39.2 °F 26.5 °F 33.8 °F 81% 29.50 in 6.2 mi East 35.7 mph 58.7 mph N/A   Haze
9:50 PM 37.4 °F 23.8 °F 33.8 °F 87% 29.53 in 5.0 mi East 36.8 mph 56.4 mph N/A   Haze
10:50 PM 37.4 °F 24.0 °F 32.0 °F 81% 29.53 in 6.2 mi East 35.7 mph 55.2 mph N/A   Haze
11:50 PM 37 °F - 31 °F 72% 29.55 in 9 mi East 40.3 mph - -   Haze
11:50 PM 37.4 °F 23.3 °F 32.0 °F 81% 29.53 in 6.2 mi East 40.3 mph 52.9 mph N/A   Haze